When you browse on this site, cookies collect data to enhance your experience and personalize the content and advertising you see.
Visit our Privacy Policy to learn more. By continuing to use the site, you agree to this use of cookies and data.
  • In Romania
  • List of Countries
  • For 7 days
  • Water Temperature
  • Satellite Maps
  • Weather Map
  • Weather Widgets
  • user-avatar
    Login

    Hourly Weather Kresty

    Today, 24 March, Sunday

    Time Temperature Precipitation Wind Pressure Humidity
    00:00 -1°C° 0.4 mm 4 mps 745 mmHg 89%
    01:00 -1°C° 0.4 mm 4 mps 744 mmHg 89%
    02:00 -1°C° 0 mm 4 mps 743 mmHg 90%
    03:00 -1°C° 0.8 mm 4 mps 742 mmHg 91%
    04:00 -1°C° 0.8 mm 4 mps 742 mmHg 92%
    05:00 -1°C° 0.8 mm 4 mps 741 mmHg 93%
    06:00 -1°C° 0.1 mm 4 mps 740 mmHg 93%
    07:00 0°C° 0.1 mm 3 mps 740 mmHg 94%
    08:00 0°C° 0 mm 3 mps 739 mmHg 95%
    09:00 +1°C° 0 mm 3 mps 739 mmHg 95%
    10:00 +1°C° 0 mm 3 mps 739 mmHg 95%
    11:00 +2°C° 0 mm 3 mps 739 mmHg 95%
    12:00 +2°C° 0.1 mm 3 mps 739 mmHg 93%
    13:00 +2°C° 0.1 mm 3 mps 739 mmHg 91%
    14:00 +2°C° 0 mm 3 mps 739 mmHg 89%
    15:00 +1°C° 0 mm 3 mps 739 mmHg 89%
    16:00 +2°C° 0 mm 2 mps 739 mmHg 89%
    17:00 +2°C° 0 mm 2 mps 739 mmHg 90%
    18:00 +1°C° 0 mm 2 mps 739 mmHg 91%
    19:00 -1°C° 0 mm 2 mps 739 mmHg 92%
    20:00 -2°C° 0 mm 2 mps 739 mmHg 92%
    21:00 -2°C° 0 mm 2 mps 739 mmHg 93%
    22:00 -3°C° 0 mm 2 mps 739 mmHg 93%
    23:00 -3°C° 0 mm 2 mps 739 mmHg 93%

    Tomorrow, 25 March, Monday

    Time Temperature Precipitation Wind Pressure Humidity
    00:00 -3°C° 0 mm 2 mps 739 mmHg 93%
    01:00 -3°C° 0 mm 2 mps 739 mmHg 93%
    02:00 -4°C° 0 mm 2 mps 739 mmHg 93%
    03:00 -4°C° 0 mm 2 mps 739 mmHg 93%
    04:00 -4°C° 0 mm 2 mps 739 mmHg 94%
    05:00 -5°C° 0 mm 2 mps 739 mmHg 95%
    06:00 -4°C° 0 mm 2 mps 739 mmHg 92%
    07:00 -3°C° 0 mm 2 mps 739 mmHg 90%
    08:00 -2°C° 0 mm 2 mps 739 mmHg 87%
    09:00 -1°C° 0 mm 3 mps 739 mmHg 86%
    10:00 0°C° 0 mm 3 mps 739 mmHg 85%
    11:00 +1°C° 0 mm 3 mps 738 mmHg 84%
    12:00 +1°C° 0 mm 3 mps 738 mmHg 82%
    13:00 +2°C° 0 mm 3 mps 738 mmHg 81%
    14:00 +2°C° 0 mm 3 mps 738 mmHg 79%
    15:00 +3°C° 0 mm 2 mps 738 mmHg 82%
    16:00 +2°C° 0 mm 2 mps 738 mmHg 85%
    17:00 +3°C° 0 mm 1 mps 738 mmHg 89%
    18:00 +2°C° 0 mm 1 mps 738 mmHg 90%
    19:00 +1°C° 0 mm 1 mps 738 mmHg 91%
    20:00 0°C° 0 mm 1 mps 738 mmHg 92%
    21:00 -2°C° 0 mm 2 mps 737 mmHg 92%
    22:00 -2°C° 0 mm 2 mps 737 mmHg 92%
    23:00 -2°C° 0 mm 2 mps 737 mmHg 92%

    Day after tomorrow, 26 March, Tuesday

    Time Temperature Precipitation Wind Pressure Humidity
    00:00 -2°C° 0 mm 2 mps 737 mmHg 91%
    01:00 -2°C° 0 mm 2 mps 736 mmHg 90%
    02:00 -2°C° 0 mm 2 mps 736 mmHg 89%
    03:00 -3°C° 0 mm 2 mps 736 mmHg 89%
    04:00 -3°C° 0 mm 2 mps 735 mmHg 88%
    05:00 -3°C° 0 mm 2 mps 735 mmHg 88%
    06:00 -2°C° 0 mm 2 mps 735 mmHg 87%
    07:00 -2°C° 0 mm 2 mps 735 mmHg 85%
    08:00 -1°C° 0 mm 2 mps 735 mmHg 84%
    09:00 -1°C° 0.4 mm 2 mps 735 mmHg 86%
    10:00 -1°C° 0.4 mm 2 mps 735 mmHg 89%
    11:00 -1°C° 0.4 mm 2 mps 735 mmHg 91%
    12:00 +1°C° 0.3 mm 2 mps 735 mmHg 88%
    13:00 0°C° 0.3 mm 3 mps 736 mmHg 85%
    14:00 0°C° 0.3 mm 3 mps 736 mmHg 82%
    15:00 -1°C° 0.1 mm 3 mps 736 mmHg 81%
    16:00 -1°C° 0.1 mm 3 mps 736 mmHg 80%
    17:00 -1°C° 0.1 mm 3 mps 736 mmHg 79%
    18:00 -2°C° 0 mm 2 mps 737 mmHg 83%
    19:00 -3°C° 0 mm 2 mps 737 mmHg 86%
    20:00 -4°C° 0 mm 2 mps 737 mmHg 90%
    21:00 -4°C° 0 mm 2 mps 738 mmHg 91%
    22:00 -4°C° 0 mm 2 mps 738 mmHg 92%
    23:00 -5°C° 0 mm 2 mps 738 mmHg 94%

    27 March, Wednesday

    Time Temperature Precipitation Wind Pressure Humidity
    00:00 -5°C° 0 mm 2 mps 738 mmHg 94%
    01:00 -5°C° 0 mm 2 mps 739 mmHg 95%
    02:00 -5°C° 0 mm 2 mps 739 mmHg 95%
    03:00 -6°C° 0 mm 3 mps 739 mmHg 93%
    04:00 -5°C° 0 mm 3 mps 739 mmHg 92%
    05:00 -5°C° 0 mm 3 mps 740 mmHg 90%
    06:00 -5°C° 0 mm 3 mps 740 mmHg 88%
    07:00 -4°C° 0 mm 3 mps 741 mmHg 87%
    08:00 -4°C° 0 mm 4 mps 741 mmHg 85%
    09:00 -4°C° 0.1 mm 4 mps 741 mmHg 83%
    10:00 -3°C° 0.1 mm 4 mps 742 mmHg 82%
    11:00 -4°C° 0.1 mm 5 mps 742 mmHg 80%
    12:00 -2°C° 0.2 mm 5 mps 743 mmHg 80%
    13:00 -2°C° 0.2 mm 5 mps 743 mmHg 80%
    14:00 -2°C° 0.2 mm 5 mps 744 mmHg 79%
    15:00 -2°C° 0.1 mm 5 mps 745 mmHg 80%
    16:00 -2°C° 0.1 mm 5 mps 745 mmHg 81%
    17:00 -4°C° 0.1 mm 5 mps 746 mmHg 82%
    18:00 -4°C° 0 mm 5 mps 747 mmHg 82%
    19:00 -4°C° 0 mm 4 mps 748 mmHg 82%
    20:00 -4°C° 0 mm 4 mps 748 mmHg 81%
    21:00 -5°C° 0 mm 4 mps 749 mmHg 82%
    22:00 -7°C° 0 mm 4 mps 750 mmHg 83%
    23:00 -6°C° 0 mm 3 mps 750 mmHg 85%

    28 March, Thursday

    Time Temperature Precipitation Wind Pressure Humidity
    00:00 -7°C° 0 mm 3 mps 751 mmHg 86%
    01:00 -7°C° 0 mm 3 mps 751 mmHg 88%
    02:00 -7°C° 0 mm 3 mps 752 mmHg 90%
    03:00 -7°C° 0 mm 2 mps 752 mmHg 92%
    04:00 -7°C° 0 mm 2 mps 753 mmHg 93%
    05:00 -7°C° 0 mm 2 mps 753 mmHg 95%
    06:00 -6°C° 0 mm 2 mps 753 mmHg 91%
    07:00 -5°C° 0 mm 2 mps 754 mmHg 87%
    08:00 -5°C° 0 mm 3 mps 754 mmHg 82%
    09:00 -4°C° 0 mm 3 mps 754 mmHg 76%
    10:00 -2°C° 0 mm 3 mps 754 mmHg 69%
    11:00 -1°C° 0 mm 4 mps 754 mmHg 62%
    12:00 -1°C° 0 mm 4 mps 753 mmHg 64%
    13:00 0°C° 0 mm 4 mps 753 mmHg 65%
    14:00 0°C° 0 mm 4 mps 753 mmHg 66%
    15:00 +1°C° 0 mm 3 mps 752 mmHg 70%
    16:00 +1°C° 0 mm 3 mps 752 mmHg 73%
    17:00 +1°C° 0 mm 2 mps 752 mmHg 77%
    18:00 0°C° 0 mm 3 mps 751 mmHg 80%
    19:00 0°C° 0 mm 3 mps 751 mmHg 83%
    20:00 0°C° 0 mm 3 mps 751 mmHg 87%
    21:00 0°C° 0 mm 3 mps 750 mmHg 87%
    22:00 -1°C° 0 mm 4 mps 750 mmHg 87%
    23:00 -1°C° 0 mm 4 mps 749 mmHg 87%

    29 March, Friday

    Time Temperature Precipitation Wind Pressure Humidity
    00:00 -1°C° 0.1 mm 4 mps 749 mmHg 88%
    01:00 -1°C° 0.1 mm 4 mps 749 mmHg 89%
    02:00 -1°C° 0.1 mm 4 mps 749 mmHg 89%
    03:00 -1°C° 0 mm 4 mps 749 mmHg 90%
    04:00 -1°C° 0 mm 4 mps 749 mmHg 91%
    05:00 -1°C° 0 mm 4 mps 749 mmHg 92%
    06:00 -1°C° 0 mm 4 mps 749 mmHg 92%
    07:00 -1°C° 0 mm 4 mps 749 mmHg 91%
    08:00 0°C° 0 mm 4 mps 749 mmHg 91%
    09:00 0°C° 0 mm 4 mps 749 mmHg 90%
    10:00 0°C° 0 mm 4 mps 749 mmHg 89%
    11:00 +1°C° 0 mm 4 mps 749 mmHg 88%
    12:00 +1°C° 0 mm 4 mps 749 mmHg 89%
    13:00 +2°C° 0 mm 3 mps 749 mmHg 89%
    14:00 +2°C° 0 mm 3 mps 749 mmHg 90%
    15:00 +3°C° 0 mm 2 mps 749 mmHg 92%
    16:00 +3°C° 0 mm 2 mps 749 mmHg 94%
    17:00 +4°C° 0 mm 1 mps 748 mmHg 96%
    18:00 +2°C° 0 mm 2 mps 748 mmHg 96%
    19:00 +2°C° 0 mm 2 mps 748 mmHg 96%
    20:00 +2°C° 0 mm 2 mps 748 mmHg 96%
    21:00 +2°C° 0 mm 2 mps 748 mmHg 95%
    22:00 +2°C° 0 mm 2 mps 747 mmHg 94%
    23:00 +1°C° 0 mm 3 mps 747 mmHg 93%
    Show more